Flag for U.S.A. Weather past 2 weeks in Long Beach, California, U.S.A.

Now
63 °F

Passing clouds.


Feels Like: 63 °F
Forecast: 51 / 61 °F
Wind: 13 mph from South

Location: Long Beach Airport

Current Time: Feb 28, 2015 at 4:46:35 PM

Latest Report: Feb 28, 2015 at 3:53 PM


Visibility: 10 mi

Pressure: 29.85 "Hg

Humidity: 52%

Dew point: 45 °F

Location of Long BeachLocation

Historic Weather in Long Beach — Graph

°F

Long Beach temperature yesterday

Maximum temperature yesterday: 64 °F (at 10:53 AM)
Minimum temperature yesterday: 54 °F (at 6:53 AM)
Average temperature yesterday: 60 °F

Past Weeks' High & Low Weather Summary

 TemperatureHumidityPressure
High86 °F (Feb 13, 2:53 PM)96% (Feb 23, 6:53 AM)30.24 "Hg (Feb 23, 6:53 AM)
Low45 °F (Feb 24, 5:53 AM)12% (Feb 13, 2:53 PM)29.75 "Hg (Feb 27, 6:53 PM)
Average61 °F69%29.99 "Hg
* Reported Feb 13 2:53 PM — Feb 28 2:53 PM, Long Beach, Weather by CustomWeather, © 2015

Note: Actual official high and low records may vary slightly from our data, if they occured in-between our weather recording intervals... More about our weather records

Advertising

Long Beach weather history for previous 24 hours

 ConditionsComfort  
Time TempWeatherWind HumidityBarometerVisibility
2:53 PM
Sat, Feb 28
63 °FPartly sunny.12 mph50%29.84 "Hg10 mi
1:53 PM64 °FScattered clouds.13 mph52%29.83 "Hg10 mi
12:53 PM63 °FMostly cloudy.8 mph52%29.85 "Hg10 mi
11:53 AM63 °FPartly sunny.9 mph50%29.87 "Hg10 mi
10:53 AM63 °FPassing clouds.8 mph50%29.88 "Hg10 mi
9:53 AM61 °FSunny.13 mph54%29.87 "Hg10 mi
8:53 AM61 °FBroken clouds.8 mph56%29.85 "Hg10 mi
7:53 AM58 °FSunny.10 mph62%29.83 "Hg10 mi
6:53 AM56 °FSunny.No wind62%29.80 "Hg10 mi
5:53 AM57 °FOvercast.7 mph64%29.78 "Hg10 mi
4:53 AM57 °FPassing clouds.6 mph64%29.77 "Hg10 mi
3:53 AM57 °FClear.12 mph64%29.76 "Hg10 mi
2:53 AM57 °FPassing clouds.10 mph69%29.76 "Hg10 mi
1:53 AM58 °FPassing clouds.7 mph70%29.78 "Hg10 mi
12:53 AM59 °FPassing clouds.12 mph69%29.77 "Hg10 mi
11:53 PM
Fri, Feb 27
59 °FClear.6 mph69%29.76 "Hg10 mi
10:53 PM60 °FOvercast.7 mph67%29.77 "Hg10 mi
9:53 PM61 °FOvercast.7 mph67%29.78 "Hg10 mi
8:53 PM62 °FPassing clouds.9 mph67%29.77 "Hg10 mi
7:53 PM62 °FPartly cloudy.5 mph65%29.76 "Hg10 mi
6:53 PM62 °FPartly cloudy.8 mph67%29.75 "Hg10 mi
5:53 PM62 °FPassing clouds.12 mph70%29.76 "Hg10 mi
4:53 PM63 °FBroken clouds.9 mph70%29.76 "Hg10 mi
Weather by CustomWeather, © 2015

See weather overviewHow to use our weather pages